FLOCK 2K-36

Last updated on Wed Feb 14 2018 16:20:53 GMT+0000 (Coordinated Universal Time)

1 42876U 17042BD 18045.50760803 .00005007 00000-0 14837-3 0 9996 2 42876 96.9934 308.3236 0012480 178.2828 181.8462 15.35201948 32806
UTC large
Height (km)
Speed (km/s)
/
Latitude / Longitude
Inclination (degrees)
Orbital Period (minutes)
Azimuth
Elevation
Range (km)
Doppler Factor

Next 0 passes for location: London (51.5072 / 0.1276)

Sorry there are no passes over London.